www.pogodaiklimat.ru

Погода и климат >> Архив погоды >> Канарские Острова >> Пальма


ПОГОДА на Пальме

  • Прогноз погоды на Пальме
  • Монитор погоды на Пальме

АРХИВ ПОГОДЫ на Пальме

Время (UTC), дата Ветер
(напр.,м/с)
 
Видим.   Явления Облачность Т
(С)
Тd
(С)
f
(%)
Тe
(С)
Тes
(С)
Комфортность P
(гПа)
Po
(гПа)
Тmin
(С)
Tmax
(С)
R
(мм)
R24
(мм)
S
(см)
16 16.08 С 6 15 км 1/1 600 м
[Sc Ac und]
+26.1 1013.6 1010.0
17 16.08 С 7 13 км 1/1 600 м
[Sc Ac und]
+25.1 1013.5 1009.9
18 16.08 С 8 11 км [макс. диам. градин 0 мм] 1/1 600 м
[Sc Ac As]
+24.6 1013.4 1009.8 +27.4
19 16.08 С 8 9000 м 1/1 600 м
[Cu Sc Ac As]
+23.8 1013.6 1010.0
20 16.08 С 7 9000 м 1/1 600 м
[Sc Ac As]
+23.5 1014.0 1010.4
21 16.08 С 7 н/о н/о +23.3 1014.3 1010.7
22 16.08 С 7 н/о н/о +23.3 1014.8 1011.2
23 16.08 С 6 н/о н/о +23.2 1014.7 1011.1
00 17.08 С 5 н/о н/о +23.2 1014.1 1010.5
01 17.08 С 4 н/о н/о +23.2 1013.9 1010.3
02 17.08 С 5 н/о н/о +23.0 1013.3 1009.7
03 17.08 С 5 н/о н/о +22.7 1012.9 1009.3
04 17.08 С 5 н/о н/о +22.7 1012.7 1009.1
05 17.08 С 5 н/о н/о +22.9 1012.8 1009.2
06 17.08 С 5 20 км [макс. диам. градин 0 мм] 1/1 600 м
[Cu Sc]
+22.9 1012.9 1009.3 +22.6
07 17.08 СЗ 5 10 км 1/1 600 м
[Cu Sc]
+25.6 1013.0 1009.4
08 17.08 С 6 10 км 1/1 600 м
[Cu Sc]
+24.4 1013.1 1009.5
09 17.08 С 6 15 км [макс. диам. градин 0 мм] 1/1 600 м
[Cu Sc]
+24.4 1013.7 1010.1
10 17.08 С 5 15 км 1/1 1000 м
[Cu Sc]
+26.2 1013.9 1010.3
11 17.08 С 6 15 км ясно +27.6 1014.2 1010.6
12 17.08 С 6 15 км [макс. диам. градин 0 мм] 3/0
[Cs]
+28.9 1013.9 1010.3
13 17.08 С 6 15 км 3/0 600 м
[Cs]
+29.6 1013.8 1010.2
14 17.08 С 5 25 км 1/1 1000 м
[Cu hum]
+29.3 1013.4 1009.8
15 17.08 С 5 20 км [макс. диам. градин 0 мм] 1/1 1000 м
[Cu hum Ac trans]
+29.0 1013.0 1009.4
16 17.08 С 5 20 км 1/1 1000 м
[Cu hum Ac und]
+27.8 1012.7 1009.1
17 17.08 С 5 20 км 1/1 1000 м
[Cu hum Ac und]
+26.6 1012.8 1009.2
18 17.08 С 6 15 км [макс. диам. градин 0 мм] 1/1 1000 м
[Cu hum Ac As]
+25.8 1012.7 1009.1 +30.5
19 17.08 С 6 15 км 1/0
[Ac As]
+25.8 1013.1 1009.5
20 17.08 С 5 15 км 1/0
[Ac As]
+25.3 1013.2 1009.6
21 17.08 СЗ 5 н/о н/о +24.9 1013.7 1010.1
22 17.08 С 8 н/о н/о +23.5 1014.3 1010.7
23 17.08 С 7 н/о н/о +23.1 1014.5 1010.9
00 18.08 С 8 н/о н/о +22.9 1014.5 1010.9
01 18.08 С 8 н/о н/о +22.9 1014.3 1010.7
02 18.08 С 7 н/о н/о +22.7 1013.8 1010.2
03 18.08 С 3 н/о н/о +22.8 1013.5 1009.9
04 18.08 С 5 н/о н/о +22.6 1013.4 1009.8
05 18.08 С 5 н/о н/о +22.7 1013.1 1009.5
06 18.08 С 4 18 км [макс. диам. градин 0 мм] 5/0 1500 м
[Ac trans]
+22.7 1013.4 1009.8 +22.3
07 18.08 С 4 15 км 3/1 1500 м
[Cu hum Ac trans]
+22.6 1013.8 1010.2
08 18.08 С 5 15 км 1/1 1500 м
[Cu hum Ac trans]
+23.4 1014.2 1010.6
09 18.08 С 5 18 км [макс. диам. градин 0 мм] 1/1 1000 м
[Sc Ac trans Cc]
+24.7 1014.7 1011.1
10 18.08 С 5 18 км 1/1 600 м
[Sc]
+24.9 1015.5 1011.9
11 18.08 С 7 18 км 1/1 600 м
[Sc]
+25.9 1015.4 1011.8
12 18.08 С 6 20 км [макс. диам. градин 0 мм] 1/1 1500 м
[Cu hum]
+26.3 1015.5 1011.9
13 18.08 С 7 20 км 1/0
[Ac trans]
+26.2 1015.5 1011.9
14 18.08 С 7 20 км 1/0
[Ac cast]
+26.5 1015.0 1011.4
15 18.08 С 7 н/о [макс. диам. градин 0 мм] н/о +25.9 1014.7 1011.1
16 18.08 С 7 20 км 1/0
[Ac cast]
+25.4 1014.4 1010.8
17 18.08 С 6 20 км ясно +25.0 1014.2 1010.6
18 18.08 С 6 20 км [макс. диам. градин 0 мм] ясно +24.6 1014.1 1010.5 +26.7
19 18.08 С 6 20 км 1/0
[Ac trans]
+23.6 1014.3 1010.7
20 18.08 С 7 30 км ясно +23.2 1014.8 1011.2
21 18.08 С 7 н/о н/о +22.9 1015.3 1011.7
22 18.08 С 7 н/о н/о +22.9 1016.0 1012.4
23 18.08 С 8 н/о н/о +22.6 1016.0 1012.4
00 19.08 С 7 н/о н/о +22.5 1016.5 1012.8
01 19.08 С 8 н/о н/о +22.3 1015.7 1012.0
02 19.08 С 6 н/о н/о +22.3 1015.6 1011.9
03 19.08 С 7 н/о н/о +22.0 1015.1 1011.4
04 19.08 С 5 н/о н/о +21.8 1015.0 1011.3
05 19.08 С 4 н/о н/о +21.7 1014.7 1011.0
06 19.08 С 4 18 км [макс. диам. градин 0 мм] 1/1 1000 м
[Sc Ac trans]
+21.6 1015.0 1011.3 +21.5
07 19.08 С 5 18 км 1/1 600 м
[Sc]
+21.8 1015.2 1011.5
08 19.08 С 5 18 км 1/1 600 м
[Sc]
+22.5 1015.5 1011.8
09 19.08 С 7 20 км [макс. диам. градин 0 мм] 1/1 600 м
[Sc]
+23.9 1015.3 1011.7
10 19.08 С 7 20 км 1/1 300 м
[Sc]
+24.4 1016.1 1012.5
11 19.08 С 7 20 км 1/1 600 м
[Sc]
+25.2 1016.5 1012.9
12 19.08 С 6 20 км [макс. диам. градин 0 мм] 1/1 600 м
[Sc]
+26.0 1016.3 1012.7
13 19.08 С 7 25 км 1/1 600 м
[Sc]
+26.0 1016.5 1012.9
14 19.08 С 7 15 км 3/3 300 м
[Cu Sc]
+25.5 1016.2 1012.6
15 19.08 С 6 15 км [макс. диам. градин 0 мм] 1/1 300 м
[Cu Sc]
+25.3 1016.0 1012.4
16 19.08 С 7 15 км 1/1 300 м
[St]
+25.2 1015.8 1012.2
17 19.08 С 7 15 км 3/3 300 м
[Sc]
+24.4 1016.0 1012.4
18 19.08 С 8 15 км [макс. диам. градин 0 мм] 1/1 300 м
[Sc]
+23.7 1015.7 1012.1 +26.4
19 19.08 С 7 12 км 8/8 600 м
[Sc]
+23.3 1016.1 1012.5
20 19.08 С 7 13 км 9/9 600 м
[Sc]
+23.1 1016.6 1013.0
21 19.08 С 7 н/о н/о +23.0 1017.7 1014.0
22 19.08 С 7 н/о н/о +23.0 1018.4 1014.7
23 19.08 С 7 н/о н/о +23.0 1018.5 1014.8
00 20.08 С 8 н/о н/о +22.7 1018.3 1014.6
01 20.08 С 7 н/о н/о +22.5 1017.8 1014.1
02 20.08 С 6 н/о н/о +22.3 1017.1 1013.4
03 20.08 С 4 н/о н/о +22.3 1016.6 1012.9
04 20.08 СЗ 4 н/о н/о +22.4 1016.5 1012.8
05 20.08 СЗ 5 н/о н/о +22.4 1016.6 1012.9
06 20.08 СЗ 5 20 км [макс. диам. градин 0 мм] 9/9 600 м
[Cu Sc]
+22.4 1016.8 1013.1 +22.2
07 20.08 СЗ 5 20 км 8/8 600 м
[Cu Sc]
+22.2 1017.1 1013.4
08 20.08 СЗ 5 20 км 8/8 600 м
[Cu Sc]
+22.5 1017.6 1013.9
09 20.08 С 7 20 км [макс. диам. градин 0 мм] 6/6 600 м
[Cu Sc]
+22.6 1018.1 1014.4
10 20.08 С 7 20 км 6/6 600 м
[Cu Sc]
+24.8 1018.5 1014.9
11 20.08 С 7 20 км 8/8 600 м
[Cu Sc]
+25.5 1018.6 1015.0
12 20.08 С 7 20 км [макс. диам. градин 0 мм] 5/5 600 м
[Cu Sc]
+26.5 1018.7 1015.1
13 20.08 С 5 20 км 1/1 600 м
[Cu Sc]
+26.5 1018.1 1014.5
14 20.08 С 6 20 км 1/1 600 м
[Cu Sc]
+26.3 1017.6 1014.0
15 20.08 С 6 20 км [макс. диам. градин 0 мм] 1/1 600 м
[Cu Sc]
+26.3 1017.2 1013.6
16 20.08 С 6 20 км 1/1 600 м
[Cu Sc]
+25.6 1017.1 1013.5
17 20.08 С 7 20 км 1/1 600 м
[Cu Sc]
+24.6 1017.2 1013.6
18 20.08 С 7 20 км [макс. диам. градин 0 мм] 5/5 600 м
[Cu Sc]
+23.8 1017.1 1013.5 +26.8
19 20.08 С 7 20 км 5/5 600 м
[Cu Sc]
+23.5 1017.2 1013.6
20 20.08 С 8 20 км 8/8 600 м
[Cu Sc]
+23.4 1017.5 1013.9
21 20.08 С 7 н/о н/о +23.2 1018.0 1014.3
22 20.08 С 8 н/о н/о +22.7 1018.3 1014.6
23 20.08 С 8 н/о н/о +22.7 1018.5 1014.8
00 21.08 С 8 н/о н/о +22.6 1018.3 1014.6
01 21.08 С 7 н/о н/о +22.4 1018.2 1014.5
02 21.08 С 8 н/о н/о +22.4 1017.6 1013.9
03 21.08 С 8 н/о н/о +22.8 1017.0 1013.3
04 21.08 СВ 10 н/о н/о +22.4 1016.8 1013.1
05 21.08 С 10 н/о н/о +22.4 1016.8 1013.1
06 21.08 С 9 20 км [макс. диам. градин 0 мм] 1/1 600 м
[Cu Sc]
+22.6 1016.9 1013.2 +22.3
07 21.08 С 12 20 км 6/6 600 м
[Cu Sc]
+22.0 1017.1 1013.4
08 21.08 С 11 20 км 8/8 600 м
[Cu Sc]
+21.8 1017.3 1013.6
09 21.08 С 9 20 км [макс. диам. градин 0 мм] 8/8 600 м
[Cu Sc]
+22.6 1017.5 1013.8
10 21.08 С 10 20 км 8/8 600 м
[Cu Sc]
+22.4 1017.6 1013.9
11 21.08 С 11 20 км 8/8 600 м
[Cu Sc]
+23.9 1017.4 1013.8
12 21.08 С 9 20 км [макс. диам. градин 0 мм] 6/6 600 м
[Cu Sc]
+24.4 1016.9 1013.3
13 21.08 С 9 20 км 8/8 600 м
[Cu Sc]
+25.3 1016.8 1013.2
14 21.08 С 10 25 км 5/5 600 м
[Sc]
+24.8 1016.2 1012.6
15 21.08 С 10 н/о [макс. диам. градин 0 мм] н/о +24.8 1015.6 1012.0
16 21.08 С 9 25 км 1/1 600 м
[Sc]
+24.4 1015.6 1012.0
17 21.08 С 9 30 км 3/3 600 м
[Sc]
+23.4 1015.8 1012.2
18 21.08 С 9 25 км [макс. диам. градин 0 мм] 3/3 600 м
[Sc]
+23.0 1015.8 1012.2 +25.4
19 21.08 С 9 25 км 1/1 600 м
[Cu Sc]
+22.7 1016.0 1012.3
20 21.08 С 9 25 км 1/1 600 м
[Sc]
+22.6 1016.1 1012.4
21 21.08 С 7 н/о н/о +22.3 1016.5 1012.8
22 21.08 С 6 н/о н/о +22.3 1016.4 1012.7
23 21.08 С 7 н/о н/о +22.1 1016.1 1012.4
00 22.08 С 6 н/о н/о +21.8 1015.8 1012.1
01 22.08 С 5 н/о н/о +21.9 1015.2 1011.5
02 22.08 СЗ 5 н/о н/о +21.7 1014.5 1010.8
03 22.08 С 6 н/о н/о +22.0 1014.1 1010.4
04 22.08 С 6 н/о н/о +21.5 1013.7 1010.0
05 22.08 СЗ 5 н/о н/о +21.7 1013.7 1010.0
06 22.08 СЗ 4 25 км [макс. диам. градин 0 мм] 8/8 600 м
[Sc]
+21.6 1014.2 1010.5 +21.4
07 22.08 СЗ 5 25 км 6/6 600 м
[Sc]
+21.8 1014.1 1010.4
08 22.08 С 6 25 км 8/8 600 м
[Sc]
+22.5 1014.4 1010.8
09 22.08 С 8 25 км [макс. диам. градин 0 мм] 1/1 600 м
[Sc]
+23.8 1014.6 1011.0
10 22.08 С 8 25 км 1/1 600 м
[Sc]
+24.0 1014.7 1011.1
11 22.08 С 8 н/о н/о +24.8 1014.7 1011.1
12 22.08 С 7 25 км [макс. диам. градин 0 мм] ясно +25.4 1014.4 1010.8
14 22.08 С 8 15 км 1/1 1000 м
[Cu Sc]
+25.4 1013.6 1010.0
15 22.08 С 8 15 км [макс. диам. градин 0 мм] 1/1 600 м
[Cu Sc]
+25.2 1013.4 1009.8
16 22.08 С 8 15 км 1/1 600 м
[Cu Sc]
+24.1 1013.2 1009.6
17 22.08 С 8 13 км 3/3 600 м
[Cu Sc]
+24.0 1012.8 1009.2
18 22.08 С 8 12 км [макс. диам. градин 0 мм] 1/1 600 м
[Cu Sc]
+23.4 1012.8 1009.2 +26.0
19 22.08 С 9 13 км 1/1 600 м
[Cu Sc]
+22.8 1013.0 1009.4
20 22.08 С 8 12 км 1/1 600 м
[Cu Sc]
+22.4 1013.3 1009.7
21 22.08 С 8 н/о н/о +22.5 1013.4 1009.8
22 22.08 С 9 н/о н/о +22.2 1013.9 1010.3
23 22.08 С 8 н/о н/о +22.1 1014.2 1010.5
00 23.08 С 7 н/о н/о +21.9 1013.8 1010.1
01 23.08 СЗ 5 н/о н/о +21.8 1013.4 1009.7
02 23.08 С 5 н/о н/о +21.7 1013.1 1009.4
03 23.08 С 5 н/о н/о +21.7 1012.6 1008.9
04 23.08 С 6 н/о н/о +21.7 1012.7 1009.0
05 23.08 С 6 н/о н/о +21.6 1012.8 1009.1
06 23.08 С 5 20 км [макс. диам. градин 0 мм] 1/1 600 м
[Cu Sc]
+21.8 1013.2 1009.5 +21.5
07 23.08 С 5 20 км 1/1 600 м
[Cu Sc]
+21.7 1013.6 1009.9
08 23.08 С 5 20 км 1/1 600 м
[Cu Sc]
+22.3 1014.0 1010.4
09 23.08 С 6 20 км [макс. диам. градин 0 мм] 1/1 600 м
[Cu Sc]
+24.2 1014.4 1010.8
10 23.08 С 7 20 км 1/1 600 м
[Cu Sc]
+24.2 1014.6 1011.0
11 23.08 С 7 20 км 1/1 600 м
[Cu Sc]
+24.6 1014.4 1010.8
12 23.08 С 7 н/о [макс. диам. градин 0 мм] н/о +25.1 1014.6 1011.0
13 23.08 С 8 20 км ясно +25.1 1014.1 1010.5
14 23.08 С 8 20 км ясно +25.2 1013.8 1010.2

 

Местоположение метеостанции Пальма (Канарские Острова): широта 28.62 долгота -17.75 высота над уровнем моря 31 м.

В архиве по умолчанию представлена погода на Пальме за последнюю неделю. Архивные данные за месяц целиком и за предыдущие месяцы, начиная с января 2011 года, Вы можете получить, выбрав интересующий диапазон дат из раскрывающегося списка и нажав кнопку "Ввод!".


*Определитесь, кто Вы:
робот инопланетянин человек

Внимание! Время в таблицах - всемирное. Для получения местного времени необходимо прибавить поправку, которая равна 0 ч.

Смотрите также архив погоды в соседних городах и на ближайших метеорологических станциях:

Погода в Тасакорте (Канарские Острова) (17 км)
Погода на Гомере (Канарские Острова) (84 км)
Погода в Джиждель порту (Алжир) (84 км)
Погода в Сан-Себастьян-де-ла-Гомера (Канарские Острова) (86 км)
Погода на Йерро (Канарские Острова) (90 км)
Погода в Пуэрто-де-ла-Крус (Канарские Острова) (119 км)
Погода в Обсерватории Izana (Канарские Острова) (127 км)
Погода в Аэропорту Рейна-София (Канарские Острова) (133 км)
Погода в Тенерифе-Гуимаре (Канарские Острова) (138 км)
Погода на Тенерифе (Канарские Острова) (142 км)

Пояснения к столбцам:

Ветер - указаны скорость ветра в м/с - средняя за 10 мин, порывы в срок и между сроками (в фигурных скобках) и направление, откуда дует ветер: С - северный, СВ - северо-восточный, В - восточный, ЮВ - юго-восточный, Ю - южный, ЮЗ - юго-западный, З - западный, СЗ - северо-западный.
Видимость - горизонтальная дальность видимости в метрах или километрах. При видимости от 1 до 10 км при отсутствии осадков обычно наблюдается дымка, при ухудшении видимости до 1 км и менее - туман. В сухую погоду видимость может ухудшаться дымом, пылью или мглою.
Явления - указаны атмосферные явления, наблюдавшиеся в срок или в последний час перед сроком; фигурными скобками обозначены явления, наблюдавшиеся между сроками (за 1-3 часа до срока); квадратными скобками обозначены град или гололедные отложения с указанием их диаметра в мм.
Облачность - указаны через наклонную черту общая и нижняя облачность в баллах и высота нижней границы облаков в метрах; квадратными скобками обозначены формы облаков: Ci - перистые, Cs - перисто-слоистые, Cc - перисто-кучевые, Ac - высококучевые, As - высокослоистые, Sc - слоисто-кучевые, Ns - слоисто-дождевые, Cu - кучевые, Cb - кучево-дождевые. Подробнее классификацию облаков см. в Атласе облаков (PDF).
T - Температура воздуха - температура, измеренная на высоте 2 м над землей.
Td - Температура точки росы - температура, при понижении до которой содержащийся в воздухе водяной пар достигнет насыщения.
f - Относительная влажность воздуха - влажноcть воздуха, измеренная на высоте 2 м над землей.
Te - Эффективная температура - температура, которую ощущает одетый по сезону человек в тени. Характеристика душности погоды. При расчете учитывается влияние влажности воздуха и скорости ветра на теплоощущения человека.
Tes - Эффективная температура на солнце - температура, которую ощущает человек, с поправкой на солнечный нагрев. Характеристика знойности погоды. Зависит от высоты солнца над горизонтом, облачности и скорости ветра. Ночью, в пасмурную погоду, а также при ветре 12 м/с и более поправка равна нулю.
P - Атмосферное давление - приведенное к уровню моря атмосферное давление.
Po - Атмосферное давление - измеренное на уровне метеостанции атмосферное давление.
Tmin - Минимальная температура - минимум температуры воздуха на высоте 2 м над землей.
Tmax - Максимальная температура - максимум температуры воздуха на высоте 2 м над землей.
R - Количество осадков - Количество выпавших осадков за период времени, мм. При наведении курсора мыши на число - период времени, за который выпало указанное количество осадков.
R24 - Количество осадков - Количество выпавших осадков за 24 часа, мм.
S - Снежный покров - Высота снежного покрова, см. При наведении курсора мыши на число - состояние снежного покрова и степень покрытия местности в баллах.